Regional Weather Roundup
Issued by NWS Wakefield, VA

Home | Current Version | Previous Version | Graphics & Text | Print | Product List | Glossary On
Versions: 1 2 3 4 5 6 7 8 9 10 11 12 13 14 15 16 17 18 19 20 21 22 23 24 25 26 27 28 29 30 31 32 33 34 35 36 37 38 39 40 41 42 43 44 45 46 47 48 49 50
000
ASUS41 KAKQ 222114
RWRAKQ

REGIONAL WEATHER ROUNDUP
NATIONAL WEATHER SERVICE WAKEFIELD VA
500 PM EDT WED MAR 22 2017

Note: "fair" indicates few or no clouds below 12,000 feet with no
significant weather and/or obstructions to visibility. * = Denotes
station may not report precipitation (e.g., rain,snow,etc.),
thunder or fog.

VAZ042-051-052>054-056-222200-
NORTHERN VIRGINIA

CITY           SKY/WX    TMP DP  RH WIND       PRES   REMARKS
WASH NATIONAL  SUNNY     48   5  17 N17G26    30.30R
DULLES         SUNNY     45   5  19 NW17G32   30.30R
FORT BELVOIR   SUNNY     48   6  18 N13G21    30.30R
QUANTICO       SUNNY     49   9  19 N20G26    30.31R
FREDERICKSBRG* SUNNY     49  14  24 N13G23    30.29R
STAFFORD*      SUNNY     48  11  22 N17G24    30.33S
WARRENTON      SUNNY     50  -3  11 N17G23    30.30R
CULPEPER*      SUNNY     49   8  18 N14G28    30.31R
MANASSAS*      SUNNY     48   9  20 N15G25    30.31R
LEESBURG*      SUNNY     46  14  27 N23G29    30.32R
WINCHESTER     SUNNY     43   9  24 N14G21    30.31R
FRONT ROYAL*   CLEAR     45   9  23 N13G23    30.30R
LURAY*         CLEAR     46  16  29 W16       30.29S
$$

VAZ048-049-060>072-079>083-222200-
CENTRAL AND SOUTH CENTRAL VIRGINIA

CITY           SKY/WX    TMP DP  RH WIND       PRES   REMARKS
RICHMOND       MOSUNNY   51  12  21 N23G29    30.26R
CHESTERFIELD*  FAIR      52   9  17 N15G25    30.27R
PETERSBURG*    SUNNY     50   6  17 N18G26    30.26R
HANOVER        SUNNY     51  13  21 NW14G23   30.29R
TAPPAHANNOCK*  SUNNY     49  -8   9 NW14G25   30.28R
QUINTON*       FAIR      50  13  22 N16G24    30.26R
CHARLOTTSVILLE SUNNY     51  10  19 N10G18    30.28S
GORDONSVILLE*  CLEAR     50  11  20 N8        30.28R
ORANGE*        SUNNY     46   9  21 N13       30.30R
LOUISA*        SUNNY     54  16  22 N8        30.27R
BUMPASS*       FAIR      49  10  20 N10G16    30.28S
FARMVILLE*     SUNNY     54   9  16 N13G21    30.24R
CREWE*         FAIR      53  12  19 N13G23    30.24R
FORT PICKETT*  FAIR      53  -4   9 N9G21     30.24R
CHASE CITY*    FAIR      54   2  12 NE7G17    30.23R
CLARKSVILLE*   FAIR      55  16  21 N10G17    30.23R
SOUTH HILL*    SUNNY     54  19  25 N14       30.28R
LAWRENCEVILLE* FAIR      53   8  16 N8        30.24R
EMPORIA*       SUNNY     52  14  22 NW13G20   30.26R
$$

VAZ088>098-222200-
SOUTHEAST VIRGINIA

CITY           SKY/WX    TMP DP  RH WIND       PRES   REMARKS
NORFOLK        SUNNY     48  27  44 N17G25    30.24R
VIRGINIA BEACH MOSUNNY   48  20  32 N15G23    30.24R
NORFOLK NAVAL  MOSUNNY   50  28  42 NE16      30.26R
WEST POINT*    SUNNY     49   7  18 N10G25    30.28R
SALUDA*        FAIR      48  17  29 N15G26    30.25R
NEWPORT NEWS   SUNNY     50  13  22 N16G25    30.24R
LANGLEY AFB    SUNNY     49  16  27 N16G25    30.23R
FORT EUSTIS    SUNNY     54  19  25 N9G21     30.22R
WILLIAMSBURG*  SUNNY     55  19  24 N6G20     30.25R
HR EXEC AP*    FAIR      52  16  24 N7G21     30.23R
FRANKLIN*      SUNNY     52  13  21 N15       30.25R
US460-WAKEFLD  SUNNY     51  13  21 N12G22    30.25R
$$

VAZ020-022-025-037-045-222200-
WEST CENTRAL AND SOUTHWEST VIRGINIA

CITY           SKY/WX    TMP DP  RH WIND       PRES   REMARKS
STAUNTON*      SUNNY     46  12  24 N12G22    30.29R
WAYNESBORO*    CLEAR     46  13  26 N13G18    30.26R
HOT SPRINGS VA SUNNY     39   0  19 NW10G18   30.22R
LYNCHBURG      SUNNY     55   5  13 N8G20     30.24R
DANVILLE       SUNNY     58  15  18 NE14      30.22R
SOUTH BOSTON*  FAIR      58   7  13 NE8G16    30.23R
MARTINSVILLE   SUNNY     58  13  17 N7        30.23S
ROANOKE        SUNNY     56  11  16 NW9       30.25R
BLACKSBURG     SUNNY     49  17  28 N12G17    30.27S
DUBLIN*        SUNNY     49  17  27 NW15      30.26S
MARION*        SUNNY     51  11  19 N8        30.25S
HILLSVILLE*    SUNNY     49  14  24 N14       30.21S
RICHLANDS*     FAIR      46  15  29 CALM      30.26S
WISE*          SUNNY     46  14  27 CALM      30.28S
ABINGDON*      SUNNY     53   9  17 NE8       30.25S
$$

MDZ021>025-VAZ099-100-222200-
SOUTHERN MARYLAND AND THE DELMARVA PENINSULA

CITY           SKY/WX    TMP DP  RH WIND       PRES   REMARKS
PATUXENT RIVER SUNNY     46  21  37 N18G25    30.27R
BAY BRIDGE APT SUNNY     45  10  24 N15G23    30.29R
LEONARDTOWN    SUNNY     46  10  23 W9G21     30.28R
DOVER          SUNNY     42  11  28 NW23G30   30.27R
GEORGETOWN     SUNNY     45   8  22 N14G22    30.26R
EASTON         SUNNY     46   9  21 NW20      30.31
CAMBRIDGE      SUNNY     45   9  23 NW20G25   30.27R
SALISBURY      SUNNY     47  11  23 NW16G23   30.24R
OCEAN CITY     SUNNY     45   9  23 NW16G24   30.24R
WALLOPS ISLAND SUNNY     47  12  24 NW14G29   30.23R
ACCOMACK*      SUNNY     47  18  31 N14G31    30.24R
$$

NCZ012>017-030>032-222200-
NORTH CENTRAL AND EASTERN NORTH CAROLINA

CITY           SKY/WX    TMP DP  RH WIND       PRES   REMARKS
ROANOKE RAPIDS FAIR      54  14  20 N15G22    30.23R
RALEIGH        MOSUNNY   60  21  22 NE21G29   30.19R
ELIZABETH CITY SUNNY     50  25  37 N17       30.23R
AHOSKIE*       NOT AVBL
EDENTON*       SUNNY     56  19  22 NW14G23   30.22R
CURRITUCK*     SUNNY     50  23  35 N16G25    30.25R
KILL DEVIL HLS NOT AVBL
MANTEO         SUNNY     47  24  40 N22G32    30.25R
CAPE HATTERAS  SUNNY     48  28  46 N13G29    30.23R
TARBORO*       NOT AVBL
GOLDSBORO      MOSUNNY   61  19  20 NE13G21   30.18R
WASHINGTON     MOSUNNY   55  17  22 N14G23    30.21R
GREENVILLE     MOSUNNY   57  19  23 NE18G24   30.22R
NEW BERN       PTSUNNY   58  27  30 N17G24    30.19R
WILMINGTON     CLOUDY    63  45  51 NE15      30.15R
$$

VAZ048-222200-
ELSEWHERE

CITY           SKY/WX    TMP DP  RH WIND       PRES   REMARKS
HARRISBURG PA  SUNNY     42   1  18 NW18G26   30.30R
BALTIMORE      SUNNY     46   8  21 NW15G26   30.27R
ANNAPOLIS      SUNNY     46  15  28 N14       30.28R
ANDREWS AFB    SUNNY     45   4  18 NW22G31   30.28R
PHILADELPHIA   SUNNY     39   3  22 NW17G29   30.30R
HENDERSON NC   MOSUNNY   53   9  17 N13G18    30.22R
GREENSBORO     PTSUNNY   60  13  15 N12G18    30.19R
ROCKY MOUNT    SUNNY     59  23  25 N13       30.21R
$$

VAZ100-222200-
MARINE

STATION/POSITION TIME  TEMP    WIND        PRES    WAVE   SWELL
                       AIR SEA DIR/SP/G            HT/PER HT/PER
                 (UTC) (F)     (DEG/KT/KT) (MB)    (FT/S) (FT/S)
CAPE MAY NJ      2048   39 44  320/ 24/ 31 1024.1R
LEWES DE         2048   39 45  350/ 27/ 33 1024.9R
OCEAN-CITY-INLET 2048   42 44   20/ 16/ 20 1024.2R
WACHAPREAGUE VA  2048   45 52   20/ 13/ 23 1023.3R
THOMAS POINT MD  2100   43 44   10/ 16/ 19   N/A
GOOSES REEF MD   2100   44 44   60/ 17/ 21 1025.6    2/ 3
COVE POINT MD    2048   42      30/ 19/ 21 1025.6R
SOLOMONS ISLAND  2048   46 46  340/ 17/ 22   N/A
BISHOPS HEAD MD  2048   45 52  340/ 14/ 18 1025.2R
PINEY POINT MD   2048          350/ 17/ 20   N/A
POTOMAC MD       2100   45 46   20/ 17/ 23 1024.5    2/ 3
CAMBRIDGE MD     2048   43 44  340/ 19/ 22 1024.4R
LEWISETTA VA     2048   47 49  350/ 13/ 21 1024.8R
RAPPAHANNOCK LGT 2048          350/ 25/ 28 1024.3R
STINGRAY PT      2050   45      30/ 14/ 17 1024.3R
YORK RVR RNG VA  2048   47     350/ 22/ 26 1023.4R
YORKTOWN VA      2048   48 49  360/ 21/ 27 1023.9R
JAMESTOWN VA     2100   49 51  350/ 12/ 19   N/A     0
DOMINION TERM VA 2048   51      30/  4/ 10 1023.9R
KIPTOPEKE VA     2048      47   10/ 15/ 22   N/A
CHES BAY BRIDGE  2048   44 47   20/ 22/ 26 1023.8R
CAPE HENRY VA    2048   45     360/ 22/ 25   N/A
WILLOUBY STN VA  2048   47     360/ 15/ 18 1024.7R
S CRANEY ISL VA  2048   48      10/ 16/ 21 1023.6R
CAPE HENRY BUOY  2042      46                N/A     6/ 6   2/11
CAPE CHARLES BUO 2051      46                N/A     5/ 4   2/11
OFFSHORE WE BUOY 2051      46                N/A     7/ 6   2/11
64NM E OF VA BCH 2050   45 49   10/ 21/ 25 1022.6R   8/ 7   3/10
DUCK PIER NC     2048   45 49   10/ 23/ 26 1023.0R
44100 DUCK FRF   2035      47                N/A     9/ 7   2/11
44056 DUCK FRF   2030      48                N/A     8/ 6   2/11
OREGON INLET NC  2048          360/ 20/ 28   N/A
HATTERAS NC      2048   47 56   10/ 30/ 34 1022.7R
DIAMOND SHLS NC  2050   49 72   10/ 27/ 35 1022.2R  10/ 9   3/16
CAPE LOOKOUT NC  2100   51      40/ 26/ 31 1022.2R
$$



USA.gov is the U.S. government's official web portal to all federal, state and local government web resources and services.